Terug naar catalogus

XM-2

ActiefCommunicatieGEO
NORAD 26724·PAYLOAD·🇺🇸 United States

Gelanceerd Mar 18, 2001 vanaf Sea Launch Platform

Loading…

TLE

VersSource: Space-Track

Epoch: Sep 14, 2026, 12:26 UTC

1 26724U 01012A   26257.51862867  .00000046  00000-0  00000-0 0  9990
2 26724   9.7922  55.5754 0009351 128.0736  71.2907  0.99079240 43124

Volg XM-2 in realtime met AllMySat

Download on the App Store